STARLINK-35748 (66206 NORAD) Tracking and Keplerian Element Data

This shows tracking and keplerian element data for the satellite.

Feedback or suggestion? Click here.




ElementValue
Catalog66206
NameSTARLINK-35748
Epoch Orbit941
Epoch Day353.88190154
Epoch Year2025
RAAN242.5282
Inclination53.16
Eccentricity0.0001166
Argument of Perigee80.122
Mean Anonmoly279.9917
Mean Motion15.39605958
Decay Rate0.00030708
L11 66206U 25244A 25353.88190154 .00030708 00000+0 77495-3 0 9993
L22 66206 53.1600 242.5282 0001166 80.1220 279.9917 15.39605958 9418



Live tracking and technical data element details for STARLINK-35748 (NORAD 66206). STARLINK-35748 can be tracked NOW for your location showing map with azimuth and elevation plus other details from your city location.







IsCatalogInMostPopularTable: catalog: 66206, numindb: 3
Update: records affected: 1



GetName: 66206 STARLINK-35748

Hit Count: updated at: Mon, 09 Feb 2026 08:10:32 GMT